This is the latest recevied weather packets stored in our database for station/object VY2CRA-4. If no packets are shown the sender has not sent any weather packets the latest 10 day(s).
| Time | Temp. | Humidity | Pressure | Rain* | Wind** | Luminosity | Snow |
|---|---|---|---|---|---|---|---|
| 1777562494 | 18.89° C | 26% | 1013.5 hPa | 0 mm | - | - | - |
| 1777561293 | 18.89° C | 26% | 1013.6 hPa | 0 mm | - | - | - |
| 1777560092 | 18.89° C | 25% | 1013.8 hPa | 0 mm | - | - | - |
| 1777558891 | 19.44° C | 25% | 1014 hPa | 0 mm | - | - | - |
| 1777557691 | 19.44° C | 24% | 1014 hPa | 0 mm | - | - | - |
| 1777556489 | 19.44° C | 24% | 1014 hPa | 0 mm | - | - | - |
| 1777555289 | 20° C | 22% | 1014.3 hPa | 0 mm | - | - | - |
| 1777554089 | 20.56° C | 21% | 1014.2 hPa | 0 mm | - | - | - |
| 1777552887 | 21.11° C | 20% | 1014.2 hPa | 0 mm | - | - | - |
| 1777551686 | 22.78° C | 17% | 1014.2 hPa | 0 mm | - | - | - |
| 1777550485 | 24.44° C | 13% | 1014.3 hPa | 0 mm | - | - | - |
| 1777549286 | 21.11° C | 23% | 1014.4 hPa | 0 mm | - | - | - |
| 1777548083 | 15.56° C | 39% | 1014.9 hPa | 0 mm | - | - | - |
| 1777546882 | 12.22° C | 47% | 1014.7 hPa | 0 mm | - | - | - |
| 1777545681 | 9.44° C | 54% | 1014.4 hPa | 0 mm | - | - | - |
| 1777544480 | 8.33° C | 55% | 1014.6 hPa | 0 mm | - | - | - |
| 1777543279 | 7.78° C | 55% | 1014.4 hPa | 0 mm | - | - | - |
| 1777542080 | 7.78° C | 54% | 1014.1 hPa | 0 mm | - | - | - |
| 1777540877 | 7.78° C | 54% | 1014.2 hPa | 0 mm | - | - | - |
| 1777539677 | 8.33° C | 53% | 1014.1 hPa | 0 mm | - | - | - |
| 1777538475 | 8.33° C | 53% | 1014.1 hPa | 0 mm | - | - | - |
| 1777536074 | 8.33° C | 52% | 1014.1 hPa | 0 mm | - | - | - |
| 1777534874 | 8.33° C | 51% | 1014.3 hPa | 0 mm | - | - | - |
| 1777533673 | 8.89° C | 51% | 1014.7 hPa | 0 mm | - | - | - |
| 1777532471 | 8.33° C | 51% | 1014.9 hPa | 0 mm | - | - | - |
* Rain since midnight (hover to see other rain measurements)
** Current wind speed in m/s (hover to see current wind gust speed)